Year,Month,Day,Hour,Minute,Value (Times are PST for temperature in C)
2014,02,16,01,14,5.90
2014,02,16,01,15,5.90
2014,02,16,01,16,5.90
2014,02,16,01,17,5.90
2014,02,16,01,18,5.90
2014,02,16,01,19,5.90
2014,02,16,01,20,5.90
2014,02,16,01,21,5.90
2014,02,16,01,22,5.90
2014,02,16,01,23,5.90
2014,02,16,01,24,5.90
2014,02,16,01,25,5.90
2014,02,16,01,26,5.90
2014,02,16,01,27,5.90
2014,02,16,01,28,5.90
2014,02,16,01,29,5.90
2014,02,16,01,30,5.90
2014,02,16,01,31,5.90
2014,02,16,01,32,5.90
2014,02,16,01,33,5.90
2014,02,16,01,34,5.90
2014,02,16,01,35,5.90
2014,02,16,01,36,5.90
2014,02,16,01,37,5.90
2014,02,16,01,38,5.90
2014,02,16,01,39,5.90
2014,02,16,01,40,5.90
2014,02,16,01,41,5.90
2014,02,16,01,42,5.90
2014,02,16,01,43,5.90
2014,02,16,01,44,5.90
2014,02,16,01,45,5.90
2014,02,16,01,46,5.90
2014,02,16,01,47,5.90
2014,02,16,01,48,5.90
2014,02,16,01,49,5.90
2014,02,16,01,50,5.90
2014,02,16,01,51,5.90
2014,02,16,01,52,5.90
2014,02,16,01,53,5.90
2014,02,16,01,54,5.90
2014,02,16,01,55,5.90
2014,02,16,01,56,5.90
2014,02,16,01,57,5.90
2014,02,16,01,58,5.90
2014,02,16,01,59,5.90
2014,02,16,02,00,5.90
2014,02,16,02,01,5.90
2014,02,16,02,02,5.90
2014,02,16,02,03,5.90
2014,02,16,02,04,5.90
2014,02,16,02,05,5.90
2014,02,16,02,06,5.90
2014,02,16,02,07,5.90
2014,02,16,02,08,5.90
2014,02,16,02,09,5.90
2014,02,16,02,10,5.90
2014,02,16,02,11,5.90
2014,02,16,02,12,5.90
2014,02,16,02,13,5.90
2014,02,16,02,14,5.90
2014,02,16,02,15,5.90
2014,02,16,02,16,5.90
2014,02,16,02,17,5.90
2014,02,16,02,18,5.90
2014,02,16,02,19,5.90
2014,02,16,02,20,5.90
2014,02,16,02,21,5.90
2014,02,16,02,22,5.90
2014,02,16,02,23,5.90
2014,02,16,02,24,5.90
2014,02,16,02,25,5.90
2014,02,16,02,26,5.90
2014,02,16,02,27,5.90
2014,02,16,02,28,5.90
2014,02,16,02,29,5.90
2014,02,16,02,30,5.90
2014,02,16,02,31,5.90
2014,02,16,02,32,5.90
2014,02,16,02,33,5.90
2014,02,16,02,34,5.90
2014,02,16,02,35,5.90
2014,02,16,02,36,5.90
2014,02,16,02,37,5.90
2014,02,16,02,38,5.90
2014,02,16,02,39,5.90
2014,02,16,02,40,5.90
2014,02,16,02,41,5.90
2014,02,16,02,42,5.90
2014,02,16,02,43,5.90
2014,02,16,02,44,5.90
2014,02,16,02,45,5.90
2014,02,16,02,46,5.90
2014,02,16,02,47,5.90
2014,02,16,02,48,5.90
2014,02,16,02,49,5.90
2014,02,16,02,50,5.90
2014,02,16,02,51,5.90
2014,02,16,02,52,5.90
2014,02,16,02,53,5.90
2014,02,16,02,54,5.90
2014,02,16,02,55,5.90
2014,02,16,02,56,5.90
2014,02,16,02,57,5.90
2014,02,16,02,58,5.90
2014,02,16,02,59,5.90
2014,02,16,03,00,5.90
2014,02,16,03,01,5.90
2014,02,16,03,02,5.90
2014,02,16,03,03,5.90
2014,02,16,03,04,5.90
2014,02,16,03,05,5.90
2014,02,16,03,06,5.90
2014,02,16,03,07,5.90
2014,02,16,03,08,5.90
2014,02,16,03,09,5.90
2014,02,16,03,10,5.90
2014,02,16,03,11,5.90
2014,02,16,03,12,5.90
2014,02,16,03,13,5.90
2014,02,16,03,14,5.90
2014,02,16,03,15,5.90
2014,02,16,03,16,5.40
2014,02,16,03,17,5.40
2014,02,16,03,18,5.40
2014,02,16,03,19,5.40
2014,02,16,03,20,5.40
2014,02,16,03,21,5.40
2014,02,16,03,22,5.40
2014,02,16,03,23,5.40
2014,02,16,03,24,5.40
2014,02,16,03,25,5.40
2014,02,16,03,26,5.40
2014,02,16,03,27,5.40
2014,02,16,03,28,5.40
2014,02,16,03,29,5.40
2014,02,16,03,30,5.40
2014,02,16,03,31,5.40
2014,02,16,03,32,5.40
2014,02,16,03,33,5.40
2014,02,16,03,34,5.40
2014,02,16,03,35,5.40
2014,02,16,03,36,5.40
2014,02,16,03,37,5.40
2014,02,16,03,38,5.40
2014,02,16,03,39,5.40
2014,02,16,03,40,5.40
2014,02,16,03,41,5.40
2014,02,16,03,42,5.40
2014,02,16,03,43,5.40
2014,02,16,03,44,5.40
2014,02,16,03,45,5.40
2014,02,16,03,46,5.40
2014,02,16,03,47,5.40
2014,02,16,03,48,5.40
2014,02,16,03,49,5.40
2014,02,16,03,50,5.40
2014,02,16,03,51,5.40
2014,02,16,03,52,5.40
2014,02,16,03,53,5.40
2014,02,16,03,54,5.40
2014,02,16,03,55,5.40
2014,02,16,03,56,5.40
2014,02,16,03,57,5.40
2014,02,16,03,58,5.40
2014,02,16,03,59,5.40
2014,02,16,04,00,5.40
2014,02,16,04,01,5.40
2014,02,16,04,02,5.40
2014,02,16,04,03,5.40
2014,02,16,04,04,5.40
2014,02,16,04,05,5.40
2014,02,16,04,06,5.40
2014,02,16,04,07,5.40
2014,02,16,04,08,5.40
2014,02,16,04,09,5.40
2014,02,16,04,10,5.40
2014,02,16,04,11,5.40
2014,02,16,04,12,5.40
2014,02,16,04,13,5.40
2014,02,16,04,14,5.40
2014,02,16,04,15,5.40
2014,02,16,04,16,5.40
2014,02,16,04,17,5.60
2014,02,16,04,18,5.60
2014,02,16,04,19,5.60
2014,02,16,04,20,5.60
2014,02,16,04,21,5.60
2014,02,16,04,22,5.60
2014,02,16,04,23,5.60
2014,02,16,04,24,5.60
2014,02,16,04,25,5.60
2014,02,16,04,26,5.60
2014,02,16,04,27,5.60
2014,02,16,04,28,5.60
2014,02,16,04,29,5.60
2014,02,16,04,30,5.60
2014,02,16,04,31,5.60
2014,02,16,04,32,5.60
2014,02,16,04,33,5.60
2014,02,16,04,34,5.60
2014,02,16,04,35,5.60
2014,02,16,04,36,5.60
2014,02,16,04,37,5.60
2014,02,16,04,38,5.60
2014,02,16,04,39,5.60
2014,02,16,04,40,5.60
2014,02,16,04,41,5.60
2014,02,16,04,42,5.60
2014,02,16,04,43,5.60
2014,02,16,04,44,5.60
2014,02,16,04,45,5.60
2014,02,16,04,46,5.60
2014,02,16,04,47,5.60
2014,02,16,04,48,5.60
2014,02,16,04,49,5.60
2014,02,16,04,50,5.60
2014,02,16,04,51,5.60
2014,02,16,04,52,5.60
2014,02,16,04,53,5.60
2014,02,16,04,54,5.60
2014,02,16,04,55,5.60
2014,02,16,04,56,5.60
2014,02,16,04,57,5.60
2014,02,16,04,58,5.60
2014,02,16,04,59,5.60
2014,02,16,05,00,5.60
2014,02,16,05,01,5.60
2014,02,16,05,02,5.60
2014,02,16,05,03,5.60
2014,02,16,05,04,5.60
2014,02,16,05,05,5.60
2014,02,16,05,06,5.60
2014,02,16,05,07,5.60
2014,02,16,05,08,5.60
2014,02,16,05,09,5.60
2014,02,16,05,10,5.60
2014,02,16,05,11,5.60
2014,02,16,05,12,5.60
2014,02,16,05,13,5.60
2014,02,16,05,14,5.60
2014,02,16,05,15,5.60
2014,02,16,05,16,5.60
2014,02,16,05,17,5.60
2014,02,16,05,18,5.40
2014,02,16,05,19,5.40
2014,02,16,05,20,5.40
2014,02,16,05,21,5.40
2014,02,16,05,22,5.40
2014,02,16,05,23,5.40
2014,02,16,05,24,5.40
2014,02,16,05,25,5.40
2014,02,16,05,26,5.40
2014,02,16,05,27,5.40
2014,02,16,05,28,5.40
2014,02,16,05,29,5.40
2014,02,16,05,30,5.40
2014,02,16,05,31,5.40
2014,02,16,05,32,5.40
2014,02,16,05,33,5.40
2014,02,16,05,34,5.40
2014,02,16,05,35,5.40
2014,02,16,05,36,5.40
2014,02,16,05,37,5.40
2014,02,16,05,38,5.40
2014,02,16,05,39,5.40
2014,02,16,05,40,5.40
2014,02,16,05,41,5.40
2014,02,16,05,42,5.40
2014,02,16,05,43,5.40
2014,02,16,05,44,5.40
2014,02,16,05,45,5.40
2014,02,16,05,46,5.40
2014,02,16,05,47,5.40
2014,02,16,05,48,5.40
2014,02,16,05,49,5.40
2014,02,16,05,50,5.40
2014,02,16,05,51,5.40
2014,02,16,05,52,5.40
2014,02,16,05,53,5.40
2014,02,16,05,54,5.40
2014,02,16,05,55,5.40
2014,02,16,05,56,5.40
2014,02,16,05,57,5.40
2014,02,16,05,58,5.40
2014,02,16,05,59,5.40
2014,02,16,06,00,5.40
2014,02,16,06,01,5.40
2014,02,16,06,02,5.40
2014,02,16,06,03,5.40
2014,02,16,06,04,5.40
2014,02,16,06,05,5.40
2014,02,16,06,06,5.40
2014,02,16,06,07,5.40
2014,02,16,06,08,5.40
2014,02,16,06,09,5.40
2014,02,16,06,10,5.40
2014,02,16,06,11,5.40
2014,02,16,06,12,5.40
2014,02,16,06,13,5.40
2014,02,16,06,14,5.40
2014,02,16,06,15,5.40
2014,02,16,06,16,5.40
2014,02,16,06,17,5.40
2014,02,16,06,18,5.40
2014,02,16,06,19,5.20
2014,02,16,06,20,5.20
2014,02,16,06,21,5.20
2014,02,16,06,22,5.20
2014,02,16,06,23,5.20
2014,02,16,06,24,5.20
2014,02,16,06,25,5.20
2014,02,16,06,26,5.20
2014,02,16,06,27,5.20
2014,02,16,06,28,5.20
2014,02,16,06,29,5.20
2014,02,16,06,30,5.20
2014,02,16,06,31,5.20
2014,02,16,06,32,5.20
2014,02,16,06,33,5.20
2014,02,16,06,34,5.20
2014,02,16,06,35,5.20
2014,02,16,06,36,5.20
2014,02,16,06,37,5.20
2014,02,16,06,38,5.20
2014,02,16,06,39,5.20
2014,02,16,06,40,5.20
2014,02,16,06,41,5.20
2014,02,16,06,42,5.20
2014,02,16,06,43,5.20
2014,02,16,06,44,5.20
2014,02,16,06,45,5.20
2014,02,16,06,46,5.20
2014,02,16,06,47,5.20
2014,02,16,06,48,5.20
2014,02,16,06,49,5.20
2014,02,16,06,50,5.20
2014,02,16,06,51,5.20
2014,02,16,06,52,5.20
2014,02,16,06,53,5.20
2014,02,16,06,54,5.20
2014,02,16,06,55,5.20
2014,02,16,06,56,5.20
2014,02,16,06,57,5.20
2014,02,16,06,58,5.20
2014,02,16,06,59,5.20
2014,02,16,07,00,5.20
2014,02,16,07,01,5.20
2014,02,16,07,02,5.20
2014,02,16,07,03,5.20
2014,02,16,07,04,5.20
2014,02,16,07,05,5.20
2014,02,16,07,06,5.20
2014,02,16,07,07,5.20
2014,02,16,07,08,5.20
2014,02,16,07,09,5.20
2014,02,16,07,10,5.20
2014,02,16,07,11,5.20
2014,02,16,07,12,5.20
2014,02,16,07,13,5.20
2014,02,16,07,14,5.20
2014,02,16,07,15,5.20
2014,02,16,07,16,5.20
2014,02,16,07,17,5.20
2014,02,16,07,18,5.20
2014,02,16,07,19,5.20
2014,02,16,07,20,3.90
2014,02,16,07,21,3.90
2014,02,16,07,22,3.90
2014,02,16,07,23,3.90
2014,02,16,07,24,3.90
2014,02,16,07,25,3.90
2014,02,16,07,26,3.90
2014,02,16,07,27,3.90
2014,02,16,07,28,3.90
2014,02,16,07,29,3.90
2014,02,16,07,30,3.90
2014,02,16,07,31,3.90
2014,02,16,07,32,3.90
2014,02,16,07,33,3.90
2014,02,16,07,34,3.90
2014,02,16,07,35,3.90
2014,02,16,07,36,3.90
2014,02,16,07,37,3.90
2014,02,16,07,38,3.90
2014,02,16,07,39,3.90
2014,02,16,07,40,3.90
2014,02,16,07,41,3.90
2014,02,16,07,42,3.90
2014,02,16,07,43,3.90
2014,02,16,07,44,3.90
2014,02,16,07,45,3.90
2014,02,16,07,46,3.90
2014,02,16,07,47,3.90
2014,02,16,07,48,3.90
2014,02,16,07,49,3.90
2014,02,16,07,50,3.90
2014,02,16,07,51,3.90
2014,02,16,07,52,3.90
2014,02,16,07,53,3.90
2014,02,16,07,54,3.90
2014,02,16,07,55,3.90
2014,02,16,07,56,3.90
2014,02,16,07,57,3.90
2014,02,16,07,58,3.90
2014,02,16,07,59,3.90
2014,02,16,08,00,3.90
2014,02,16,08,01,3.90
2014,02,16,08,02,3.90
2014,02,16,08,03,3.90
2014,02,16,08,04,3.90
2014,02,16,08,05,3.90
2014,02,16,08,06,3.90
2014,02,16,08,07,3.90
2014,02,16,08,08,3.90
2014,02,16,08,09,3.90
2014,02,16,08,10,3.90
2014,02,16,08,11,3.90
2014,02,16,08,12,3.90
2014,02,16,08,13,3.90
2014,02,16,08,14,3.90
2014,02,16,08,15,3.90
2014,02,16,08,16,3.90
2014,02,16,08,17,3.90
2014,02,16,08,18,3.90
2014,02,16,08,19,3.90
2014,02,16,08,20,5.20
2014,02,16,08,21,5.20
2014,02,16,08,22,5.20
2014,02,16,08,23,5.20
2014,02,16,08,24,5.20
2014,02,16,08,25,5.20
2014,02,16,08,26,5.20
2014,02,16,08,27,5.20
2014,02,16,08,28,5.20
2014,02,16,08,29,5.20
2014,02,16,08,30,5.20
2014,02,16,08,31,5.20
2014,02,16,08,32,5.20
2014,02,16,08,33,5.20
2014,02,16,08,34,5.20
2014,02,16,08,35,5.20
2014,02,16,08,36,5.20
2014,02,16,08,37,5.20
2014,02,16,08,38,5.20
2014,02,16,08,39,5.20
2014,02,16,08,40,5.20
2014,02,16,08,41,5.20
2014,02,16,08,42,5.20
2014,02,16,08,43,5.20
2014,02,16,08,44,5.20
2014,02,16,08,45,5.20
2014,02,16,08,46,5.20
2014,02,16,08,47,5.20
2014,02,16,08,48,5.20
2014,02,16,08,49,5.20
2014,02,16,08,50,5.20
2014,02,16,08,51,5.20
2014,02,16,08,52,5.20
2014,02,16,08,53,5.20
2014,02,16,08,54,5.20
2014,02,16,08,55,5.20
2014,02,16,08,56,5.20
2014,02,16,08,57,5.20
2014,02,16,08,58,5.20
2014,02,16,08,59,5.20
2014,02,16,09,00,5.20
2014,02,16,09,01,5.20
2014,02,16,09,02,5.20
2014,02,16,09,03,5.20
2014,02,16,09,04,5.20
2014,02,16,09,05,5.20
2014,02,16,09,06,5.20
2014,02,16,09,07,5.20
2014,02,16,09,08,5.20
2014,02,16,09,09,5.20
2014,02,16,09,10,5.20
2014,02,16,09,11,5.20
2014,02,16,09,12,5.20
2014,02,16,09,13,5.20
2014,02,16,09,14,5.20
2014,02,16,09,15,5.20
2014,02,16,09,16,5.20
2014,02,16,09,17,5.20
2014,02,16,09,18,5.20
2014,02,16,09,19,5.20
2014,02,16,09,20,5.20
2014,02,16,09,21,5.80
2014,02,16,09,22,5.80
2014,02,16,09,23,5.80
2014,02,16,09,24,5.80
2014,02,16,09,25,5.80
2014,02,16,09,26,5.80
2014,02,16,09,27,5.80
2014,02,16,09,28,5.80
2014,02,16,09,29,5.80
2014,02,16,09,30,5.80
2014,02,16,09,31,5.80
2014,02,16,09,32,5.80
2014,02,16,09,33,5.80
2014,02,16,09,34,5.80
2014,02,16,09,35,5.80
2014,02,16,09,36,5.80
2014,02,16,09,37,5.80
2014,02,16,09,38,5.80
2014,02,16,09,39,5.80
2014,02,16,09,40,5.80
2014,02,16,09,41,5.80
2014,02,16,09,42,5.80
2014,02,16,09,43,5.80
2014,02,16,09,44,5.80
2014,02,16,09,45,5.80
2014,02,16,09,46,5.80
2014,02,16,09,47,5.80
2014,02,16,09,48,5.80
2014,02,16,09,49,5.80
2014,02,16,09,50,5.80
2014,02,16,09,51,5.80
2014,02,16,09,52,5.80
2014,02,16,09,53,5.80
2014,02,16,09,54,5.80
2014,02,16,09,55,5.80
2014,02,16,09,56,5.80
2014,02,16,09,57,5.80
2014,02,16,09,58,5.80
2014,02,16,09,59,5.80
2014,02,16,10,00,5.80
2014,02,16,10,01,5.80
2014,02,16,10,02,5.80
2014,02,16,10,03,5.80
2014,02,16,10,04,5.80
2014,02,16,10,05,5.80
2014,02,16,10,06,5.80
2014,02,16,10,07,5.80
2014,02,16,10,08,5.80
2014,02,16,10,09,5.80
2014,02,16,10,10,5.80
2014,02,16,10,11,5.80
2014,02,16,10,12,5.80
2014,02,16,10,13,5.80
2014,02,16,10,14,5.80
2014,02,16,10,15,5.80
2014,02,16,10,16,5.80
2014,02,16,10,17,5.80
2014,02,16,10,18,5.80
2014,02,16,10,19,5.80
2014,02,16,10,20,5.80
2014,02,16,10,21,6.60
2014,02,16,10,22,6.60
2014,02,16,10,23,6.60
2014,02,16,10,24,6.60
2014,02,16,10,25,6.60
2014,02,16,10,26,6.60
2014,02,16,10,27,6.60
2014,02,16,10,28,6.60
2014,02,16,10,29,6.60
2014,02,16,10,30,6.60
2014,02,16,10,31,6.60
2014,02,16,10,32,6.60
2014,02,16,10,33,6.60
2014,02,16,10,34,6.60
2014,02,16,10,35,6.60
2014,02,16,10,36,6.60
2014,02,16,10,37,6.60
2014,02,16,10,38,6.60
2014,02,16,10,39,6.60
2014,02,16,10,40,6.60
2014,02,16,10,41,6.60
2014,02,16,10,42,6.60
2014,02,16,10,43,6.60
2014,02,16,10,44,6.60
2014,02,16,10,45,6.60
2014,02,16,10,46,6.60
2014,02,16,10,47,6.60
2014,02,16,10,48,6.60
2014,02,16,10,49,6.60
2014,02,16,10,50,6.60
2014,02,16,10,51,6.60
2014,02,16,10,52,6.60
2014,02,16,10,53,6.60
2014,02,16,10,54,6.60
2014,02,16,10,55,6.60
2014,02,16,10,56,6.60
2014,02,16,10,57,6.60
2014,02,16,10,58,6.60
2014,02,16,10,59,6.60
2014,02,16,11,00,6.60
2014,02,16,11,01,6.60
2014,02,16,11,02,6.60
2014,02,16,11,03,6.60
2014,02,16,11,04,6.60
2014,02,16,11,05,6.60
2014,02,16,11,06,6.60
2014,02,16,11,07,6.60
2014,02,16,11,08,6.60
2014,02,16,11,09,6.60
2014,02,16,11,10,6.60
2014,02,16,11,11,6.60
2014,02,16,11,12,6.60
2014,02,16,11,13,6.60
2014,02,16,11,14,6.60
2014,02,16,11,15,6.60
2014,02,16,11,16,6.60
2014,02,16,11,17,6.60
2014,02,16,11,18,6.60
2014,02,16,11,19,6.60
2014,02,16,11,20,6.60
2014,02,16,11,21,6.60
2014,02,16,11,22,6.20
2014,02,16,11,23,6.20
2014,02,16,11,24,6.20
2014,02,16,11,25,6.20
2014,02,16,11,26,6.20
2014,02,16,11,27,6.20
2014,02,16,11,28,6.20
2014,02,16,11,29,6.20
2014,02,16,11,30,6.20
2014,02,16,11,31,6.20
2014,02,16,11,32,6.20
2014,02,16,11,33,6.20
2014,02,16,11,34,6.20
2014,02,16,11,35,6.20
2014,02,16,11,36,6.20
2014,02,16,11,37,6.20
2014,02,16,11,38,6.20
2014,02,16,11,39,6.20
2014,02,16,11,40,6.20
2014,02,16,11,41,6.20
2014,02,16,11,42,6.20
2014,02,16,11,43,6.20
2014,02,16,11,44,6.20
2014,02,16,11,45,6.20
2014,02,16,11,46,6.20
2014,02,16,11,47,6.20
2014,02,16,11,48,6.20
2014,02,16,11,49,6.20
2014,02,16,11,50,6.20
2014,02,16,11,51,6.20
2014,02,16,11,52,6.20
2014,02,16,11,53,6.20
2014,02,16,11,54,6.20
2014,02,16,11,55,6.20
2014,02,16,11,56,6.20
2014,02,16,11,57,6.20
2014,02,16,11,58,6.20
2014,02,16,11,59,6.20
2014,02,16,12,00,6.20
2014,02,16,12,01,6.20
2014,02,16,12,02,6.20
2014,02,16,12,03,6.20
2014,02,16,12,04,6.20
2014,02,16,12,05,6.20
2014,02,16,12,06,6.20
2014,02,16,12,07,6.20
2014,02,16,12,08,6.20
2014,02,16,12,09,6.20
2014,02,16,12,10,6.20
2014,02,16,12,11,6.20
2014,02,16,12,12,6.20
2014,02,16,12,13,6.20
2014,02,16,12,14,6.20
2014,02,16,12,15,6.20
2014,02,16,12,16,6.20
2014,02,16,12,17,6.20
2014,02,16,12,18,6.20
2014,02,16,12,19,6.20
2014,02,16,12,20,6.20
2014,02,16,12,21,6.20
2014,02,16,12,22,5.90
2014,02,16,12,23,5.90
2014,02,16,12,24,5.90
2014,02,16,12,25,5.90
2014,02,16,12,26,5.90
2014,02,16,12,27,5.90
2014,02,16,12,28,5.90
2014,02,16,12,29,5.90
2014,02,16,12,30,5.90
2014,02,16,12,31,5.90
2014,02,16,12,32,5.90
2014,02,16,12,33,5.90
2014,02,16,12,34,5.90
2014,02,16,12,35,5.90
2014,02,16,12,36,5.90
2014,02,16,12,37,5.90
2014,02,16,12,38,5.90
2014,02,16,12,39,5.90
2014,02,16,12,40,5.90
2014,02,16,12,41,5.90
2014,02,16,12,42,5.90
2014,02,16,12,43,5.90
2014,02,16,12,44,5.90
2014,02,16,12,45,5.90
2014,02,16,12,46,5.90
2014,02,16,12,47,5.90
2014,02,16,12,48,5.90
2014,02,16,12,49,5.90
2014,02,16,12,50,5.90
2014,02,16,12,51,5.90
2014,02,16,12,52,5.90
2014,02,16,12,53,5.90
2014,02,16,12,54,5.90
2014,02,16,12,55,5.90
2014,02,16,12,56,5.90
2014,02,16,12,57,5.90
2014,02,16,12,58,5.90
2014,02,16,12,59,5.90
2014,02,16,13,00,5.90
2014,02,16,13,01,5.90
2014,02,16,13,02,5.90
2014,02,16,13,03,5.90
2014,02,16,13,04,5.90
2014,02,16,13,05,5.90
2014,02,16,13,06,5.90
2014,02,16,13,07,5.90
2014,02,16,13,08,5.90
2014,02,16,13,09,5.90
2014,02,16,13,10,5.90
2014,02,16,13,11,5.90
2014,02,16,13,12,5.90
2014,02,16,13,13,5.90
2014,02,16,13,14,5.90
2014,02,16,13,15,5.90
2014,02,16,13,16,5.90
2014,02,16,13,17,5.90
2014,02,16,13,18,5.90
2014,02,16,13,19,5.90
2014,02,16,13,20,5.90
2014,02,16,13,21,5.90
2014,02,16,13,22,6.60
2014,02,16,13,23,6.60
2014,02,16,13,24,6.60
2014,02,16,13,25,6.60
2014,02,16,13,26,6.60
2014,02,16,13,27,6.60
2014,02,16,13,28,6.60
2014,02,16,13,29,6.60
2014,02,16,13,30,6.60
2014,02,16,13,31,6.60
2014,02,16,13,32,6.60
2014,02,16,13,33,6.60
2014,02,16,13,34,6.60
2014,02,16,13,35,6.60
2014,02,16,13,36,6.60
2014,02,16,13,37,6.60
2014,02,16,13,38,6.60
2014,02,16,13,39,6.60
2014,02,16,13,40,6.60
2014,02,16,13,41,6.60
2014,02,16,13,42,6.60
2014,02,16,13,43,6.60
2014,02,16,13,44,6.60
2014,02,16,13,45,6.60
2014,02,16,13,46,6.60
2014,02,16,13,47,6.60
2014,02,16,13,48,6.60
2014,02,16,13,49,6.60
2014,02,16,13,50,6.60
2014,02,16,13,51,6.60
2014,02,16,13,52,6.60
2014,02,16,13,53,6.60
2014,02,16,13,54,6.60
2014,02,16,13,55,6.60
2014,02,16,13,56,6.60
2014,02,16,13,57,6.60
2014,02,16,13,58,6.60
2014,02,16,13,59,6.60
2014,02,16,14,00,6.60
2014,02,16,14,01,6.60
2014,02,16,14,02,6.60
2014,02,16,14,03,6.60
2014,02,16,14,04,6.60
2014,02,16,14,05,6.60
2014,02,16,14,06,6.60
2014,02,16,14,07,6.60
2014,02,16,14,08,6.60
2014,02,16,14,09,6.60
2014,02,16,14,10,6.60
2014,02,16,14,11,6.60
2014,02,16,14,12,6.60
2014,02,16,14,13,6.60
2014,02,16,14,14,6.60
2014,02,16,14,15,6.60
2014,02,16,14,16,6.60
2014,02,16,14,17,6.60
2014,02,16,14,18,6.60
2014,02,16,14,19,6.60
2014,02,16,14,20,6.60
2014,02,16,14,21,6.60
2014,02,16,14,22,7.30
2014,02,16,14,23,7.30
2014,02,16,14,24,7.30
2014,02,16,14,25,7.30
2014,02,16,14,26,7.30
2014,02,16,14,27,7.30
2014,02,16,14,28,7.30
2014,02,16,14,29,7.30
2014,02,16,14,30,7.30
2014,02,16,14,31,7.30
2014,02,16,14,32,7.30
2014,02,16,14,33,7.30
2014,02,16,14,34,7.30
2014,02,16,14,35,7.30
2014,02,16,14,36,7.30
2014,02,16,14,37,7.30
2014,02,16,14,38,7.30
2014,02,16,14,39,7.30
2014,02,16,14,40,7.30
2014,02,16,14,41,7.30
2014,02,16,14,42,7.30
2014,02,16,14,43,7.30
2014,02,16,14,44,7.30
2014,02,16,14,45,7.30
2014,02,16,14,46,7.30
2014,02,16,14,47,7.30
2014,02,16,14,48,7.30
2014,02,16,14,49,7.30
2014,02,16,14,50,7.30
2014,02,16,14,51,7.30
2014,02,16,14,52,7.30
2014,02,16,14,53,7.30
2014,02,16,14,54,7.30
2014,02,16,14,55,7.30
2014,02,16,14,56,7.30
2014,02,16,14,57,7.30
2014,02,16,14,58,7.30
2014,02,16,14,59,7.30
2014,02,16,15,00,7.30
2014,02,16,15,01,7.30
2014,02,16,15,02,7.30
2014,02,16,15,03,7.30
2014,02,16,15,04,7.30
2014,02,16,15,05,7.30
2014,02,16,15,06,7.30
2014,02,16,15,07,7.30
2014,02,16,15,08,7.30
2014,02,16,15,09,7.30
2014,02,16,15,10,7.30
2014,02,16,15,11,7.30
2014,02,16,15,12,7.30
2014,02,16,15,13,7.30
2014,02,16,15,14,7.30
2014,02,16,15,15,7.30
2014,02,16,15,16,7.30
2014,02,16,15,17,7.30
2014,02,16,15,18,7.30
2014,02,16,15,19,7.30
2014,02,16,15,20,7.30
2014,02,16,15,21,7.30
2014,02,16,15,22,7.30
2014,02,16,15,23,7.40
2014,02,16,15,24,7.40
2014,02,16,15,25,7.40
2014,02,16,15,26,7.40
2014,02,16,15,27,7.40
2014,02,16,15,28,7.40
2014,02,16,15,29,7.40
2014,02,16,15,30,7.40
2014,02,16,15,31,7.40
2014,02,16,15,32,7.40
2014,02,16,15,33,7.40
2014,02,16,15,34,7.40
2014,02,16,15,35,7.40
2014,02,16,15,36,7.40
2014,02,16,15,37,7.40
2014,02,16,15,38,7.40
2014,02,16,15,39,7.40
2014,02,16,15,40,7.40
2014,02,16,15,41,7.40
2014,02,16,15,42,7.40
2014,02,16,15,43,7.40
2014,02,16,15,44,7.40
2014,02,16,15,45,7.40
2014,02,16,15,46,7.40
2014,02,16,15,47,7.40
2014,02,16,15,48,7.40
2014,02,16,15,49,7.40
2014,02,16,15,50,7.40
2014,02,16,15,51,7.40
2014,02,16,15,52,7.40
2014,02,16,15,53,7.40
2014,02,16,15,54,7.40
2014,02,16,15,55,7.40
2014,02,16,15,56,7.40
2014,02,16,15,57,7.40
2014,02,16,15,58,7.40
2014,02,16,15,59,7.40
2014,02,16,16,00,7.40
2014,02,16,16,01,7.40
2014,02,16,16,02,7.40
2014,02,16,16,03,7.40
2014,02,16,16,04,7.40
2014,02,16,16,05,7.40
2014,02,16,16,06,7.40
2014,02,16,16,07,7.40
2014,02,16,16,08,7.40
2014,02,16,16,09,7.40
2014,02,16,16,10,7.40
2014,02,16,16,11,7.40
2014,02,16,16,12,7.40
2014,02,16,16,13,7.40
2014,02,16,16,14,7.40
2014,02,16,16,15,7.40
2014,02,16,16,16,7.40
2014,02,16,16,17,7.40
2014,02,16,16,18,7.40
2014,02,16,16,19,7.40
2014,02,16,16,20,7.40
2014,02,16,16,21,7.40
2014,02,16,16,22,7.40
2014,02,16,16,23,7.10
2014,02,16,16,24,7.10
2014,02,16,16,25,7.10
2014,02,16,16,26,7.10
2014,02,16,16,27,7.10
2014,02,16,16,28,7.10
2014,02,16,16,29,7.10
2014,02,16,16,30,7.10
2014,02,16,16,31,7.10
2014,02,16,16,32,7.10
2014,02,16,16,33,7.10
2014,02,16,16,34,7.10
2014,02,16,16,35,7.10
2014,02,16,16,36,7.10
2014,02,16,16,37,7.10
2014,02,16,16,38,7.10
2014,02,16,16,39,7.10
2014,02,16,16,40,7.10
2014,02,16,16,41,7.10
2014,02,16,16,42,7.10
2014,02,16,16,43,7.10
2014,02,16,16,44,7.10
2014,02,16,16,45,7.10
2014,02,16,16,46,7.10
2014,02,16,16,47,7.10
2014,02,16,16,48,7.10
2014,02,16,16,49,7.10
2014,02,16,16,50,7.10
2014,02,16,16,51,7.10
2014,02,16,16,52,7.10
2014,02,16,16,53,7.10
2014,02,16,16,54,7.10
2014,02,16,16,55,7.10
2014,02,16,16,56,7.10
2014,02,16,16,57,7.10
2014,02,16,16,58,7.10
2014,02,16,16,59,7.10
2014,02,16,17,00,7.10
2014,02,16,17,01,7.10
2014,02,16,17,02,7.10
2014,02,16,17,03,7.10
2014,02,16,17,04,7.10
2014,02,16,17,05,7.10
2014,02,16,17,06,7.10
2014,02,16,17,07,7.10
2014,02,16,17,08,7.10
2014,02,16,17,09,7.10
2014,02,16,17,10,7.10
2014,02,16,17,11,7.10
2014,02,16,17,12,7.10
2014,02,16,17,13,7.10
2014,02,16,17,14,7.10
2014,02,16,17,15,7.10
2014,02,16,17,16,7.10
2014,02,16,17,17,7.10
2014,02,16,17,18,7.10
2014,02,16,17,19,7.10
2014,02,16,17,20,7.10
2014,02,16,17,21,7.10
2014,02,16,17,22,7.10
2014,02,16,17,23,7.10
2014,02,16,17,24,6.80
2014,02,16,17,25,6.80
2014,02,16,17,26,6.80
2014,02,16,17,27,6.80
2014,02,16,17,28,6.80
2014,02,16,17,29,6.80
2014,02,16,17,30,6.80
2014,02,16,17,31,6.80
2014,02,16,17,32,6.80
2014,02,16,17,33,6.80
2014,02,16,17,34,6.80
2014,02,16,17,35,6.80
2014,02,16,17,36,6.80
2014,02,16,17,37,6.80
2014,02,16,17,38,6.80
2014,02,16,17,39,6.80
2014,02,16,17,40,6.80
2014,02,16,17,41,6.80
2014,02,16,17,42,6.80
2014,02,16,17,43,6.80
2014,02,16,17,44,6.80
2014,02,16,17,45,6.80
2014,02,16,17,46,6.80
2014,02,16,17,47,6.80
2014,02,16,17,48,6.80
2014,02,16,17,49,6.80
2014,02,16,17,50,6.80
2014,02,16,17,51,6.80
2014,02,16,17,52,6.80
2014,02,16,17,53,6.80
2014,02,16,17,54,6.80
2014,02,16,17,55,6.80
2014,02,16,17,56,6.80
2014,02,16,17,57,6.80
2014,02,16,17,58,6.80
2014,02,16,17,59,6.80
2014,02,16,18,00,6.80
2014,02,16,18,01,6.80
2014,02,16,18,02,6.80
2014,02,16,18,03,6.80
2014,02,16,18,04,6.80
2014,02,16,18,05,6.80
2014,02,16,18,06,6.80
2014,02,16,18,07,6.80
2014,02,16,18,08,6.80
2014,02,16,18,09,6.80
2014,02,16,18,10,6.80
2014,02,16,18,11,6.80
2014,02,16,18,12,6.80
2014,02,16,18,13,6.80
2014,02,16,18,14,6.80
2014,02,16,18,15,6.80
2014,02,16,18,16,6.80
2014,02,16,18,17,6.80
2014,02,16,18,18,6.80
2014,02,16,18,19,6.80
2014,02,16,18,20,6.80
2014,02,16,18,21,6.80
2014,02,16,18,22,6.80
2014,02,16,18,23,6.80
2014,02,16,18,24,6.80
2014,02,16,18,25,6.80
2014,02,16,18,26,6.80
2014,02,16,18,27,6.80
2014,02,16,18,28,6.80
2014,02,16,18,29,6.80
2014,02,16,18,30,6.80
2014,02,16,18,31,6.80
2014,02,16,18,32,6.80
2014,02,16,18,33,6.80
2014,02,16,18,34,6.80
2014,02,16,18,35,6.80
2014,02,16,18,36,6.80
2014,02,16,18,37,6.80
2014,02,16,18,38,6.80
2014,02,16,18,39,6.80
2014,02,16,18,40,6.80
2014,02,16,18,41,6.80
2014,02,16,18,42,6.80
2014,02,16,18,43,6.80
2014,02,16,18,44,6.80
2014,02,16,18,45,6.80
2014,02,16,18,46,6.80
2014,02,16,18,47,6.80
2014,02,16,18,48,6.80
2014,02,16,18,49,6.80
2014,02,16,18,50,6.80
2014,02,16,18,51,6.80
2014,02,16,18,52,6.80
2014,02,16,18,53,6.80
2014,02,16,18,54,6.80
2014,02,16,18,55,6.80
2014,02,16,18,56,6.80
2014,02,16,18,57,6.80
2014,02,16,18,58,6.80
2014,02,16,18,59,6.80
2014,02,16,19,00,6.80
2014,02,16,19,01,6.80
2014,02,16,19,02,6.80
2014,02,16,19,03,6.80
2014,02,16,19,04,6.80
2014,02,16,19,05,6.80
2014,02,16,19,06,6.80
2014,02,16,19,07,6.80
2014,02,16,19,08,6.80
2014,02,16,19,09,6.80
2014,02,16,19,10,6.80
2014,02,16,19,11,6.80
2014,02,16,19,12,6.80
2014,02,16,19,13,6.80
2014,02,16,19,14,6.80
2014,02,16,19,15,6.80
2014,02,16,19,16,6.80
2014,02,16,19,17,6.80
2014,02,16,19,18,6.80
2014,02,16,19,19,6.80
2014,02,16,19,20,6.80